Home   Weather   Port Moresby   Past weeks
Flag for Papua New Guinea

Past Weather in Port Moresby, Papua New Guinea — Yesterday and Last 2 Weeks

Now
88 °F

Scattered clouds.


Feels Like: 98 °F
Forecast: 90 / 78 °F
Wind: 5 mph from Northwest

Location: Moresby

Current Time: Mar 20, 2019 at 3:20:38 pm

Latest Report: Mar 20, 2019 at 2:00 pm


Visibility: N/A

Pressure: 29.71 "Hg

Humidity: 66%

Dew Point: 75 °F

Location of Port MoresbyLocation

Past Weather in Port Moresby — Graph

°F

Port Moresby Temperature Yesterday

Maximum temperature yesterday: 90 °F (at 1:00 pm)
Minimum temperature yesterday: 75 °F (at 4:00 am)
Average temperature yesterday: 83 °F

High & Low Weather Summary for the Past Weeks

 TemperatureHumidityPressure
High90 °F (Mar 5, 2:00 pm)100% (Mar 7, 7:00 am)29.89 "Hg (Mar 7, 7:00 am)
Low73 °F (Mar 8, 5:00 am)55% (Mar 19, 3:00 pm)29.68 "Hg (Mar 16, 4:00 pm)
Average80 °F86%29.78 "Hg
* Reported Mar 5 2:00 pm — Mar 20 2:00 pm, Port Moresby. Weather by CustomWeather, © 2019

Note: Actual official high and low records may vary slightly from our data, if they occured in-between our weather recording intervals... More about our weather records

Advertising

Port Moresby Weather History for the Previous 24 Hours

Scroll right to see more
 ConditionsComfort  
Time TempWeatherWind HumidityBarometerVisibility
2:00 pm
Wed, Mar 20
88 °FScattered clouds.5 mph66%29.71 "HgN/A
1:00 pm88 °FScattered clouds.7 mph66%29.74 "HgN/A
12:00 pm86 °FScattered clouds.7 mph70%29.77 "HgN/A
11:00 am82 °FBroken clouds.15 mph84%29.83 "HgN/A
10:00 am82 °FScattered clouds.12 mph84%29.86 "HgN/A
9:00 am81 °FScattered clouds.12 mph84%29.86 "HgN/A
7:00 am75 °FScattered clouds.12 mph100%29.74 "HgN/A
6:00 am75 °FPassing clouds.6 mph100%29.74 "HgN/A
5:00 am77 °FPassing clouds.2 mph94%29.71 "HgN/A
4:00 am75 °FPassing clouds.3 mph94%29.68 "HgN/A
3:00 am75 °FPassing clouds.No wind94%29.68 "HgN/A
2:00 am75 °FPassing clouds.2 mph94%29.68 "HgN/A
1:00 am77 °FPassing clouds.5 mph89%29.74 "HgN/A
12:00 am79 °FPassing clouds.3 mph89%29.77 "HgN/A
11:00 pm
Tue, Mar 19
79 °FPassing clouds.3 mph89%29.80 "HgN/A
10:00 pm81 °FPassing clouds.3 mph84%29.80 "HgN/A
9:00 pm81 °FPassing clouds.3 mph89%29.77 "HgN/A
8:00 pm79 °FPassing clouds.3 mph89%29.71 "HgN/A
7:00 pm81 °FPassing clouds.3 mph84%29.74 "HgN/A
6:00 pm84 °FScattered clouds.12 mph70%29.71 "HgN/A
5:00 pm88 °FScattered clouds.7 mph62%29.68 "HgN/A
4:00 pm88 °FScattered clouds.9 mph59%29.68 "HgN/A
3:00 pm90 °FScattered clouds.14 mph55%29.68 "HgN/A
Weather by CustomWeather, © 2019

See weather overview